Regional Weather Roundup
Issued by NWS

Home | Current Version | Previous Version | Text Only | Print | Product List | Glossary On
Versions: 1 2 3 4 5 6 7 8 9 10 11 12 13 14 15 16 17 18 19 20 21 22 23 24 25 26 27 28 29 30 31 32 33 34 35 36 37 38 39 40 41 42 43 44 45 46 47 48 49 50
000
ASUS45 KTFX 020019
RWRMT
MONTANA HOURLY WEATHER ROUNDUP
NATIONAL WEATHER SERVICE GREAT FALLS MT
619 PM MDT MON SEP 1 2014

NOTE: "FAIR" INDICATES FEW OR NO CLOUDS BELOW 12000 FEET WITH NO
SIGNIFICANT WEATHER AND/OR OBSTRUCTIONS TO VISIBILITY.

* THESE STATIONS ARE NOT UNDER NWS QUALITY CONTROL. THEY DO NOT
   REPORT WEATHER SUCH AS PRECIPITATION OR FOG.

MTZ001>007-043-020100-
WEST OF THE DIVIDE
CITY           SKY/WX    TMP DP  RH WIND       PRES   REMARKS
KALISPELL      CLOUDY    66  39  37 W12       29.95S
MISSOULA       FAIR      72  37  28 NW13      29.99F
BUTTE          CLEAR     66  34  31 NW13      30.03F
MULLAN PASS    MOCLDY    52  37  57 SW8       30.10F
* LINCOLN      N/A       66  34  31 SW8G20     N/A
* LOOKOUT PASS N/A       57  39  51 E6G15      N/A
* POLSON       N/A       67  38  35 SW3G9      N/A
* RONAN APT    CLEAR     70  39  32 SW10G15    N/A
* SEELEY LAKE  N/A       66  36  33 NW8G14     N/A
* THOMP F APT  CLEAR     64  34  33 S11G20     N/A
$$

MTZ008-052>055-020100-
SOUTHWEST MONTANA
CITY           SKY/WX    TMP DP  RH WIND       PRES   REMARKS
BOZEMAN        CLEAR     70  36  29 VRB5      29.98F
DILLON         CLEAR     70  34  27 W13       30.02S
W YELLOWSTONE  CLEAR     59  37  44 SW17G25   30.12S
* THREE FORKS  CLEAR     72  48  43 N/A        N/A
* BOULDER HILL N/A       65  28  25 S10G22     N/A
* MONIDA PASS  N/A       60  32  35 S16G24     N/A
* RAYNOLDS PAS N/A       62  51  67 SW12G19    N/A
* WHITEHALL    N/A       75  38  26 SW8G17     N/A
* WISE RIVER   N/A       67  31  26 W15G21     N/A
$$

MTZ009>010-012-014-046-048-049-054-020100-
EAST SLOPES AND CENTRAL MONTANA
CITY           SKY/WX    TMP DP  RH WIND       PRES   REMARKS
CUT BANK       PTCLDY    66  39  37 W26G36    29.90S
GREAT FALLS    PTCLDY    70  34  27 W23G29    29.89F
HELENA         CLEAR     72  36  27 W13       29.95F
MALMSTROM AFB  FAIR      70  34  27 W15G28    29.91S
* CONRAD       CLEAR     68  39  35 W23G29     N/A
* EAST GLACIER N/A       58  38  47 W24G32     N/A
* MONARCH      N/A       62  26  25 W16G23     N/A
* PENDROY      N/A       65  36  34 W19G26     N/A
* ROGERS PASS  N/A       59  34  39 SE8G18     N/A
* SAINT MARY   N/A       61  41  48 S10G22     N/A
* SWEET GRASS  N/A       66  37  34 W22G28     N/A
* WHITE SULPH  N/A       66  34  31 NW7G12     N/A
$$

MTZ011-013-016-021-035-040-045-047-050-051-020100-
NORTH CENTRAL MONTANA
CITY           SKY/WX    TMP DP  RH WIND       PRES   REMARKS
HAVRE          MOCLDY    72  36  27 W24G35    29.81F
LEWISTOWN      CLOUDY    66  36  33 W8        29.93S
* CHINOOK      PTCLDY    70  43  38 W6G21     29.81S
* FORT BENTON  CLEAR     73  34  24 SW16      29.86S
* CHESTER      N/A       69  34  28 W14G24     N/A
* DENTON       N/A       70  35  28 W19G26     N/A
* GEYSER       N/A       66  33  29 W19G26     N/A
* JUDITH GAP   N/A       67  37  33 NW9G18     N/A
* LOMA         N/A       72  37  28 W13G21     N/A
$$

MTZ017>020-022>027-061-062-020100-
NORTHEAST MONTANA
CITY           SKY/WX    TMP DP  RH WIND       PRES   REMARKS
GLASGOW        PTCLDY    66  46  49 S9        29.83F
GLENDIVE       MOCLDY    64  52  65 W3        29.88S
JORDAN         CLEAR     72  41  33 W7        29.86S
SIDNEY         PTCLDY    70  48  46 CALM      29.85F
WOLF POINT     TSTM      61  52  72 W16       29.87R
* BEAVER HILL  N/A       66  41  40 W11        N/A
* CIRCLE       N/A       71  47  43 W8         N/A
* LINDSAY DVD  N/A       67  40  37 W6         N/A
* NAVAJO       N/A       67  40  37 NW9        N/A
$$

MTZ028>042-056>058-020100-
SOUTHCENTRAL AND SOUTHEAST MONTANA
CITY           SKY/WX    TMP DP  RH WIND       PRES   REMARKS
BAKER          PTCLDY    70  46  42 CALM      29.90S
BILLINGS       FAIR      72  34  25 NW13      29.93S
LIVINGSTON     CLEAR     70  36  29 W20G26    29.97S
MILES CITY     PTCLDY    73  37  27 NW14      29.88R
* LAUREL APT   CLEAR     73  34  24 W10G16     N/A
* ROUNDUP APT  PTCLDY    70  34  27 W6         N/A
* ALZADA       N/A       66  42  42 W9G14      N/A
* HYSHAM       N/A       72  35  26 N2G9       N/A
* LAME DEER    N/A       65  34  32 W12G20     N/A
* REED POINT   N/A       72  35  26 W19G28     N/A
* ROSCOE HILL  N/A       64  31  29 E6G11      N/A
$$

REGIONAL REPORTS...DAKOTAS
CITY           SKY/WX    TMP DP  RH WIND       PRES   REMARKS
WILLISTON      PTCLDY    70  43  38 W9        29.82F
DICKINSON      PTCLDY    66  45  47 W13       29.85F
BEACH          N/A       64  48  56 W7        29.88S
CROSBY         CLEAR     68  41  38 NW10      29.80S
TIOGA          CLOUDY    66  45  47 W16       29.85S
WATFORD CITY   MOCLDY    64  45  50 NW9       29.82S
BISMARCK       PTCLDY    72  43  35 NW9       29.82F
GRAND FORKS    FAIR      72  55  55 CALM      29.72F
FARGO          PTCLDY    64  55  73 N9        29.74R
BUFFALO SD     PTCLDY    64  45  50 NW7       29.85R
RAPID CITY     PTCLDY    64  46  52 N8        29.95S
$$

REGIONAL REPORTS...WYOMING/IDAHO/WASHINGTON
CITY           SKY/WX    TMP DP  RH WIND       PRES   REMARKS
GILLETTE       CLEAR     63  41  45 NW14      30.00R
SHERIDAN       FAIR      68  43  40 NW8       29.97F
CODY           PTCLDY   N/A N/A N/A N/A        N/A
YELLOWSTONE LA CLEAR     54  34  47 VRB3      30.21S
SALMON         CLEAR     72  39  30 CALM      29.96F
MULLAN PASS    MOCLDY    52  37  57 SW8       30.10S
SAND POINT     CLOUDY    68  43  40 CALM      29.96F
SPOKANE        FAIR      72  36  27 SW9       29.98F
$$

REGIONAL REPORTS...ALBERTA
CITY           SKY/WX    TMP DP  RH WIND       PRES   REMARKS
CALGARY        MOCLDY    68  32  26 W23G30    29.77S
LETHBRIDGE     PTCLDY    68  37  32 W31G47    29.81R
MEDICINE HAT   MOCLDY    72  39  30 W10       29.75F
EDMONTON       TSTM      55  48  77 NW7       29.75R
WATERTON GATE  N/A       63  39  41 SW16G33    N/A
CARDSTON       N/A       63  39  41 W15G25     N/A
MILK RIVER     N/A       68  37  32 W22G29     N/A
$$

REGIONAL REPORTS...SASKATCHEWAN
CITY           SKY/WX    TMP DP  RH WIND       PRES   REMARKS
SWIFT CURRENT  FAIR      66  39  37 SW9G17    29.76F
REGINA         FAIR      66  45  47 NW10      29.77F
VAL MARIE      N/A       72  37  28 W15G21     N/A
ASSINIBOIA     N/A       66  41  40 W3         N/A
CORONACH       N/A       64  41  43 W6         N/A

$$



USA.gov is the U.S. government's official web portal to all federal, state and local government web resources and services.